ACA2536 CYOW-CYQB

Flight info

Callsign ACA2536
Flight time 0h 44m
Altitude 23000
Route TAKOL Q941 AGLUK PESAC4
Aircraft DH8D/M-SDE2E3FGRY/H

Departure

Time 2026-05-07 12:15
Airport Ottawa Macdonald-Cartier International Airport (CYOW)

Arrival

Time 2026-05-07 13:00
Airport Quebec Jean Lesage International Airport (CYQB)
Time Latitude Longitude Altitude Speed Heading
2026-05-07 11:42 45.32021 -75.66444 377 ft 0 kts 327°
2026-05-07 12:06 45.32021 -75.66445 377 ft 0 kts 327°
2026-05-07 12:06 45.32022 -75.66445 377 ft 0 kts 327°
2026-05-07 12:07 45.32018 -75.66441 377 ft 2 kts 327°
2026-05-07 12:07 45.32005 -75.66430 377 ft 2 kts 327°
2026-05-07 12:07 45.31993 -75.66419 377 ft 2 kts 327°
2026-05-07 12:07 45.31980 -75.66408 377 ft 2 kts 342°
2026-05-07 12:08 45.31965 -75.66406 377 ft 2 kts 14°
2026-05-07 12:08 45.31952 -75.66416 377 ft 2 kts 44°
2026-05-07 12:08 45.31947 -75.66426 377 ft 0 kts 58°
2026-05-07 12:10 45.31948 -75.66423 377 ft 2 kts 58°
2026-05-07 12:10 45.31950 -75.66377 377 ft 7 kts 97°
2026-05-07 12:10 45.31945 -75.66290 376 ft 14 kts 91°
2026-05-07 12:10 45.31995 -75.66155 377 ft 15 kts 57°
2026-05-07 12:11 45.32064 -75.66003 377 ft 25 kts 58°
2026-05-07 12:11 45.32173 -75.65752 377 ft 28 kts 57°
2026-05-07 12:11 45.32265 -75.65550 377 ft 24 kts 56°
2026-05-07 12:11 45.32350 -75.65361 377 ft 21 kts 58°
2026-05-07 12:12 45.32428 -75.65189 375 ft 19 kts 57°
2026-05-07 12:12 45.32498 -75.65035 374 ft 18 kts 57°
2026-05-07 12:12 45.32564 -75.64887 374 ft 16 kts 56°
2026-05-07 12:12 45.32588 -75.64730 371 ft 16 kts 103°
2026-05-07 12:13 45.32547 -75.64577 368 ft 16 kts 143°
2026-05-07 12:13 45.32466 -75.64605 369 ft 7 kts 237°
2026-05-07 12:13 45.32457 -75.64624 369 ft 0 kts 237°
2026-05-07 12:14 45.32452 -75.64637 369 ft 8 kts 238°
2026-05-07 12:15 45.32393 -75.64771 371 ft 34 kts 235°
2026-05-07 12:15 45.32094 -75.65428 376 ft 117 kts 237°
2026-05-07 12:15 45.31598 -75.66595 534 ft 152 kts 240°
2026-05-07 12:15 45.31043 -75.67935 1183 ft 163 kts 243°
2026-05-07 12:16 45.30478 -75.69347 1930 ft 170 kts 244°
2026-05-07 12:16 45.29899 -75.70808 2590 ft 177 kts 245°
2026-05-07 12:16 45.29238 -75.72438 2939 ft 201 kts 244°
2026-05-07 12:16 45.28417 -75.74232 2718 ft 221 kts 238°
2026-05-07 12:17 45.27542 -75.75960 2595 ft 213 kts 238°
2026-05-07 12:17 45.26673 -75.77636 2635 ft 209 kts 233°
2026-05-07 12:17 45.25415 -75.78753 2821 ft 228 kts 204°
2026-05-07 12:17 45.23842 -75.79354 3378 ft 241 kts 192°
2026-05-07 12:18 45.22156 -75.79015 3975 ft 255 kts 160°
2026-05-07 12:18 45.20605 -75.77790 4733 ft 257 kts 151°
2026-05-07 12:18 45.19094 -75.76470 5480 ft 258 kts 149°
2026-05-07 12:18 45.17821 -75.74676 6172 ft 265 kts 123°
2026-05-07 12:19 45.17259 -75.72200 6878 ft 268 kts 94°
2026-05-07 12:19 45.17529 -75.69597 7473 ft 273 kts 67°
2026-05-07 12:19 45.18314 -75.67188 8138 ft 276 kts 62°
2026-05-07 12:19 45.19161 -75.64707 8823 ft 279 kts 62°
2026-05-07 12:20 45.20012 -75.62229 9427 ft 284 kts 62°
2026-05-07 12:20 45.20881 -75.59712 10031 ft 289 kts 62°
2026-05-07 12:20 45.21775 -75.57138 10664 ft 294 kts 62°
2026-05-07 12:20 45.22713 -75.54463 10910 ft 312 kts 61°
2026-05-07 12:21 45.23707 -75.51653 10980 ft 332 kts 61°
2026-05-07 12:21 45.24784 -75.48627 10988 ft 349 kts 61°
2026-05-07 12:21 45.25845 -75.45551 10945 ft 342 kts 62°
2026-05-07 12:21 45.27226 -75.42866 9974 ft 340 kts 37°
2026-05-07 12:22 45.29226 -75.41389 9479 ft 313 kts 13°
2026-05-07 12:22 45.31127 -75.40497 10110 ft 268 kts 13°
2026-05-07 12:22 45.32867 -75.39624 10891 ft 269 kts 14°
2026-05-07 12:22 45.34682 -75.38684 11095 ft 292 kts 15°
2026-05-07 12:23 45.36642 -75.37598 11315 ft 309 kts 17°
2026-05-07 12:23 45.38670 -75.36416 11581 ft 321 kts 18°
2026-05-07 12:23 45.40760 -75.35161 11899 ft 329 kts 18°
2026-05-07 12:23 45.42873 -75.33865 12227 ft 335 kts 19°
2026-05-07 12:24 45.45031 -75.32525 12501 ft 342 kts 20°
2026-05-07 12:24 45.47222 -75.31150 12904 ft 344 kts 20°
2026-05-07 12:24 45.49403 -75.29772 13253 ft 347 kts 20°
2026-05-07 12:24 45.51628 -75.28359 13627 ft 350 kts 20°
2026-05-07 12:25 45.53838 -75.26950 14029 ft 351 kts 21°
2026-05-07 12:25 45.56092 -75.25510 14396 ft 353 kts 21°
2026-05-07 12:25 45.58338 -75.24070 14677 ft 358 kts 21°
2026-05-07 12:25 45.60591 -75.22623 15080 ft 360 kts 21°
2026-05-07 12:26 45.62899 -75.21122 15492 ft 361 kts 22°
2026-05-07 12:26 45.64937 -75.19004 15684 ft 373 kts 48°
2026-05-07 12:26 45.66269 -75.15815 15981 ft 377 kts 65°
2026-05-07 12:26 45.67346 -75.12457 16452 ft 374 kts 67°
2026-05-07 12:27 45.68431 -75.09003 16685 ft 379 kts 67°
2026-05-07 12:27 45.69504 -75.05578 16991 ft 383 kts 67°
2026-05-07 12:27 45.70590 -75.02110 17305 ft 385 kts 67°
2026-05-07 12:27 45.71690 -74.98597 17641 ft 386 kts 67°
2026-05-07 12:28 45.72782 -74.95113 17881 ft 390 kts 67°
2026-05-07 12:28 45.73894 -74.91562 18213 ft 390 kts 68°
2026-05-07 12:28 45.75008 -74.87998 18387 ft 396 kts 67°
2026-05-07 12:28 45.76123 -74.84432 18773 ft 395 kts 68°
2026-05-07 12:29 45.77255 -74.80805 19051 ft 397 kts 68°
2026-05-07 12:29 45.78385 -74.77183 19261 ft 401 kts 68°
2026-05-07 12:29 45.79519 -74.73544 19519 ft 403 kts 68°
2026-05-07 12:29 45.80645 -74.69930 19873 ft 402 kts 68°
2026-05-07 12:30 45.81784 -74.66261 20188 ft 402 kts 68°
2026-05-07 12:30 45.82923 -74.62588 20297 ft 408 kts 68°
2026-05-07 12:30 45.84078 -74.58862 20571 ft 410 kts 68°
2026-05-07 12:30 45.85221 -74.55169 20922 ft 404 kts 68°
2026-05-07 12:31 45.86374 -74.51444 21243 ft 404 kts 68°
2026-05-07 12:31 45.87507 -74.47768 21504 ft 407 kts 68°
2026-05-07 12:31 45.88646 -74.44074 21776 ft 407 kts 68°
2026-05-07 12:31 45.89784 -74.40372 22209 ft 409 kts 68°
2026-05-07 12:32 45.90921 -74.36671 22456 ft 408 kts 68°
2026-05-07 12:32 45.92069 -74.32931 22826 ft 406 kts 70°
2026-05-07 12:32 45.93197 -74.29253 22868 ft 404 kts 69°
2026-05-07 12:32 45.94336 -74.25536 22896 ft 408 kts 69°
2026-05-07 12:33 45.96624 -74.18040 22878 ft 408 kts 69°
2026-05-07 12:33 45.97751 -74.14349 22885 ft 404 kts 69°
2026-05-07 12:33 45.98872 -74.10669 22886 ft 401 kts 69°
2026-05-07 12:34 45.99976 -74.07037 22886 ft 398 kts 69°
2026-05-07 12:34 46.01080 -74.03397 22886 ft 396 kts 69°
2026-05-07 12:34 46.02174 -73.99785 22888 ft 395 kts 69°
2026-05-07 12:34 46.03265 -73.96174 22882 ft 394 kts 69°
2026-05-07 12:35 46.04357 -73.92558 22880 ft 392 kts 70°
2026-05-07 12:35 46.05448 -73.88935 22882 ft 392 kts 69°
2026-05-07 12:35 46.06523 -73.85361 22899 ft 394 kts 70°
2026-05-07 12:35 46.07609 -73.81735 22884 ft 398 kts 69°
2026-05-07 12:36 46.08713 -73.78048 22892 ft 400 kts 70°
2026-05-07 12:36 46.09815 -73.74361 22902 ft 402 kts 69°
2026-05-07 12:36 46.10920 -73.70663 22894 ft 404 kts 69°
2026-05-07 12:36 46.12026 -73.66956 22897 ft 404 kts 70°
2026-05-07 12:37 46.13138 -73.63226 22891 ft 405 kts 69°
2026-05-07 12:37 46.14252 -73.59480 22896 ft 405 kts 69°
2026-05-07 12:37 46.15352 -73.55785 22881 ft 403 kts 69°
2026-05-07 12:37 46.16445 -73.52105 22888 ft 401 kts 70°
2026-05-07 12:38 46.17543 -73.48398 22882 ft 401 kts 70°
2026-05-07 12:38 46.18628 -73.44733 22891 ft 400 kts 70°
2026-05-07 12:38 46.19727 -73.41010 22888 ft 399 kts 70°
2026-05-07 12:38 46.20813 -73.37328 22796 ft 402 kts 70°
2026-05-07 12:39 46.21892 -73.33643 22781 ft 401 kts 71°
2026-05-07 12:39 46.22962 -73.29954 22779 ft 399 kts 71°
2026-05-07 12:39 46.24046 -73.26218 22771 ft 399 kts 71°
2026-05-07 12:39 46.25108 -73.22545 22762 ft 398 kts 71°
2026-05-07 12:40 46.26167 -73.18882 22766 ft 398 kts 71°
2026-05-07 12:40 46.27236 -73.15179 22769 ft 397 kts 71°
2026-05-07 12:40 46.28295 -73.11503 22768 ft 397 kts 71°
2026-05-07 12:40 46.29352 -73.07830 22768 ft 397 kts 71°
2026-05-07 12:41 46.30410 -73.04150 22764 ft 396 kts 71°
2026-05-07 12:41 46.31467 -73.00468 22779 ft 396 kts 71°
2026-05-07 12:41 46.32510 -72.96825 22772 ft 396 kts 71°
2026-05-07 12:41 46.33569 -72.93126 22773 ft 396 kts 71°
2026-05-07 12:42 46.34608 -72.89489 22772 ft 396 kts 71°
2026-05-07 12:42 46.35655 -72.85822 22780 ft 396 kts 71°
2026-05-07 12:42 46.36717 -72.82111 22778 ft 396 kts 71°
2026-05-07 12:42 46.37779 -72.78447 22787 ft 395 kts 71°
2026-05-07 12:43 46.38827 -72.74819 22764 ft 395 kts 71°
2026-05-07 12:43 46.39898 -72.71127 22772 ft 394 kts 70°
2026-05-07 12:43 46.40945 -72.67493 22779 ft 394 kts 71°
2026-05-07 12:43 46.41996 -72.63852 22779 ft 394 kts 70°
2026-05-07 12:44 46.43044 -72.60199 22781 ft 394 kts 70°
2026-05-07 12:44 46.44099 -72.56522 22772 ft 394 kts 71°
2026-05-07 12:44 46.45141 -72.52889 22786 ft 393 kts 71°
2026-05-07 12:44 46.46188 -72.49233 22786 ft 392 kts 71°
2026-05-07 12:45 46.47230 -72.45584 22775 ft 393 kts 71°
2026-05-07 12:45 46.48273 -72.41926 22784 ft 393 kts 71°
2026-05-07 12:45 46.49316 -72.38268 22612 ft 386 kts 70°
2026-05-07 12:45 46.50332 -72.34730 22090 ft 379 kts 71°
2026-05-07 12:46 46.51331 -72.31230 21458 ft 375 kts 71°
2026-05-07 12:46 46.52313 -72.27780 20830 ft 371 kts 71°
2026-05-07 12:46 46.53287 -72.24349 20200 ft 367 kts 71°
2026-05-07 12:46 46.54260 -72.20886 19587 ft 379 kts 71°
2026-05-07 12:47 46.55276 -72.17264 18968 ft 388 kts 71°
2026-05-07 12:47 46.56297 -72.13624 18357 ft 393 kts 70°
2026-05-07 12:47 46.57326 -72.09963 17733 ft 392 kts 70°
2026-05-07 12:47 46.58343 -72.06348 17115 ft 391 kts 70°
2026-05-07 12:48 46.59360 -72.02721 16491 ft 389 kts 70°
2026-05-07 12:48 46.60395 -71.99077 15855 ft 385 kts 68°
2026-05-07 12:48 46.61528 -71.95637 15220 ft 373 kts 65°
2026-05-07 12:48 46.62663 -71.92333 14577 ft 361 kts 65°
2026-05-07 12:49 46.63763 -71.89112 13950 ft 360 kts 65°
2026-05-07 12:49 46.64868 -71.85845 13328 ft 356 kts 65°
2026-05-07 12:49 46.65942 -71.82665 12687 ft 352 kts 64°
2026-05-07 12:49 46.67010 -71.79494 11982 ft 344 kts 64°
2026-05-07 12:50 46.68043 -71.76419 11272 ft 336 kts 64°
2026-05-07 12:50 46.69041 -71.73441 10854 ft 318 kts 63°
2026-05-07 12:50 46.69975 -71.70648 10579 ft 299 kts 63°
2026-05-07 12:50 46.70865 -71.67980 10253 ft 289 kts 63°
2026-05-07 12:51 46.71732 -71.65378 9842 ft 283 kts 63°
2026-05-07 12:51 46.72651 -71.62865 9421 ft 279 kts 53°
2026-05-07 12:51 46.73916 -71.60816 9020 ft 273 kts 42°
2026-05-07 12:51 46.75288 -71.58873 8555 ft 272 kts 42°
2026-05-07 12:52 46.76638 -71.56964 8047 ft 273 kts 42°
2026-05-07 12:52 46.77993 -71.55045 7536 ft 272 kts 42°
2026-05-07 12:52 46.79326 -71.53152 7033 ft 265 kts 42°
2026-05-07 12:52 46.80637 -71.51283 6607 ft 264 kts 43°
2026-05-07 12:53 46.81937 -71.49422 6191 ft 258 kts 42°
2026-05-07 12:53 46.83191 -71.47630 5765 ft 249 kts 42°
2026-05-07 12:53 46.84399 -71.45900 5341 ft 241 kts 42°
2026-05-07 12:53 46.85566 -71.44227 5081 ft 226 kts 42°
2026-05-07 12:54 46.86690 -71.42606 5041 ft 238 kts 43°
2026-05-07 12:54 46.87829 -71.40958 4976 ft 220 kts 42°
2026-05-07 12:54 46.88874 -71.39461 4812 ft 207 kts 42°
2026-05-07 12:54 46.89930 -71.38030 4334 ft 208 kts 37°
2026-05-07 12:55 46.91078 -71.36659 4076 ft 218 kts 36°
2026-05-07 12:55 46.92269 -71.35188 3902 ft 226 kts 43°
2026-05-07 12:55 46.92942 -71.33210 3597 ft 217 kts 83°
2026-05-07 12:55 46.92563 -71.31142 3106 ft 215 kts 127°
2026-05-07 12:56 46.91439 -71.29760 2662 ft 213 kts 148°
2026-05-07 12:56 46.90190 -71.28662 2487 ft 201 kts 151°
2026-05-07 12:56 46.89019 -71.27724 2467 ft 180 kts 156°
2026-05-07 12:56 46.87926 -71.27574 2405 ft 144 kts 210°
2026-05-07 12:57 46.87107 -71.28400 2283 ft 155 kts 219°
2026-05-07 12:57 46.86229 -71.29349 1805 ft 155 kts 217°
2026-05-07 12:57 46.85356 -71.30212 1718 ft 155 kts 215°
2026-05-07 12:57 46.84437 -71.31184 1504 ft 168 kts 223°
2026-05-07 12:58 46.83617 -71.32373 1478 ft 161 kts 231°
2026-05-07 12:58 46.82990 -71.33538 1390 ft 134 kts 233°
2026-05-07 12:58 46.82409 -71.34532 1022 ft 127 kts 228°
2026-05-07 12:58 46.81802 -71.35430 823 ft 124 kts 227°
2026-05-07 12:59 46.81186 -71.36324 650 ft 127 kts 225°
2026-05-07 12:59 46.80582 -71.37234 469 ft 123 kts 227°
2026-05-07 12:59 46.79991 -71.38111 305 ft 121 kts 226°
2026-05-07 12:59 46.79420 -71.38930 253 ft 97 kts 225°
2026-05-07 13:00 46.79063 -71.39451 253 ft 58 kts 225°
2026-05-07 13:00 46.78822 -71.39801 253 ft 41 kts 225°
2026-05-07 13:00 46.78640 -71.40061 253 ft 32 kts 225°
2026-05-07 13:00 46.78492 -71.40071 253 ft 23 kts 103°
2026-05-07 13:01 46.78502 -71.39851 253 ft 20 kts 58°
2026-05-07 13:01 46.78595 -71.39709 253 ft 18 kts 44°
2026-05-07 13:01 46.78701 -71.39558 253 ft 21 kts 45°
2026-05-07 13:01 46.78801 -71.39420 253 ft 18 kts 36°
2026-05-07 13:02 46.78896 -71.39323 253 ft 14 kts 38°
2026-05-07 13:02 46.78984 -71.39209 253 ft 19 kts 42°
2026-05-07 13:02 46.79089 -71.39062 253 ft 21 kts 45°
2026-05-07 13:02 46.79186 -71.38921 253 ft 17 kts 49°
2026-05-07 13:03 46.79154 -71.38803 253 ft 14 kts 152°
2026-05-07 13:03 46.79045 -71.38715 253 ft 17 kts 151°
2026-05-07 13:03 46.78938 -71.38589 253 ft 19 kts 84°
2026-05-07 13:03 46.78943 -71.38414 253 ft 15 kts 97°
2026-05-07 13:04 46.78936 -71.38347 253 ft 3 kts 86°
2026-05-07 13:04 46.78936 -71.38384 253 ft 1 kts 85°
2026-05-07 13:04 46.78943 -71.38366 253 ft 2 kts 38°
2026-05-07 13:04 46.78949 -71.38362 253 ft 1 kts
2026-05-07 13:05 46.78968 -71.38364 253 ft 1 kts 353°
2026-05-07 13:05 46.78975 -71.38365 253 ft 0 kts 352°
2026-05-07 13:05 46.78980 -71.38366 253 ft 1 kts 352°
2026-05-07 13:06 46.78988 -71.38367 253 ft 0 kts 352°
2026-05-07 13:06 46.78989 -71.38368 253 ft 0 kts 352°